Regional Weather Roundup
Issued by NWS Kansas City/Pleasant Hill, MO

Home | Current Version | Previous Version | Graphics & Text | Print | Product List | Glossary Off
Versions: 1 2 3 4 5 6 7 8 9 10 11 12 13 14 15 16 17 18 19 20 21 22 23 24 25 26 27 28 29 30 31 32 33 34 35 36 37 38 39 40 41 42 43 44 45 46 47 48 49 50

000
ASUS43 KEAX 260911
RWREAX

WEATHER ROUNDUP FOR EASTERN KANSAS AND NORTHWEST MISSOURI
NATIONAL WEATHER SERVICE KANSAS CITY/PLEASANT HILL MO
400 AM CDT TUE MAY 26 2015

KSZ040-057-103>105-MOZ028-029-037-043-261000-
...KANSAS CITY METROPOLITAN AREA...

CITY           SKY/WX    TMP DP  RH WIND       PRES   REMARKS
K.C. INTL      RAIN      60  59  96 NW9       29.77F FOG
K.C. DOWNTOWN  RAIN      62  59  90 NW9       29.77F FOG
LEES SUMMIT    RAIN      61  59  93 NW7       29.78S FOG
OLATHE - IXD   RAIN      61  60  97 NW6       29.79F FOG
OLATHE - OJC   LGT RAIN  61  60  97 NW9       29.77F
LAWRENCE       LGT RAIN  61  58  90 NW6       29.77F

$$

MOZ001>008-011>017-020>025-030>033-038>040-044>046-053-054-261000-
...NORTHERN AND CENTRAL MISSOURI...

CITY           SKY/WX    TMP DP  RH WIND       PRES   REMARKS
ST. JOSEPH     RAIN      61  60  97 W6        29.78F
MOSBY          RAIN      61  61 100 W6        29.77R
WARRENSBURG    CLOUDY    63  59  88 W12G24    29.77R
WHITEMAN AFB   CLOUDY    68  62  81 S17G25    29.75R
CLINTON        CLOUDY    66  63  88 S9        29.78S
SEDALIA        CLOUDY    68  63  84 S13       29.78F
WARSAW         NOT AVBL
CHILLICOTHE      N/A     63  60  90 NW7       29.75F
KIRKSVILLE     LGT RAIN  68  67  96 SE8       29.76F

$$

MOZ041-047>049-056>058-063>065-088>090-097-261000-
...EASTERN AND SOUTHERN MISSOURI...

CITY           SKY/WX    TMP DP  RH WIND       PRES   REMARKS
ST. LOUIS INTL CLOUDY    74  67  78 S15       29.87F
SPIRIT OF STL  MOCLDY    73  66  78 S7        29.84F
COLUMBIA       LGT RAIN  68  64  87 SE10      29.78F
JEFFERSON CITY LGT RAIN  68  64  87 SE6       29.78F
ROLLA          CLOUDY    64  62  93 SE9       29.80F
OSAGE BEACH    CLOUDY    66  61  82 S8G20     29.83R
SPRINGFIELD    CLOUDY    62  59  90 SW7       29.85S
BRANSON        CLOUDY    59  59 100 CALM      29.89R
JOPLIN         CLOUDY    63  59  87 SW13      29.84S
WEST PLAINS    CLOUDY    63  60  90 SW5       29.86R

$$

IAZ060-094-KSZ022-034>040-054-083-096-NEZ052-066-093-261000-
...KANSAS...SOUTHEAST NEBRASKA AND IOWA...

CITY           SKY/WX    TMP DP  RH WIND       PRES   REMARKS
TOPEKA         LGT RAIN  61  59  93 N5        29.76F
MANHATTAN      CLOUDY    61  59  93 CALM      29.79F
EMPORIA        CLOUDY    59  59 100 SE3       29.79F
CHANUTE        LGT RAIN  61  60  97 CALM      29.82S FOG
WICHITA        CLOUDY    60  58  92 CALM      29.81F
OMAHA          LGT RAIN  64  57  78 S16       29.78S
LINCOLN        CLOUDY    61  56  83 SE8       29.77F
FALLS CITY     LGT RAIN  60  59  96 E6        29.78F
LAMONI         CLOUDY    62  59  90 NW3       29.79F
DES MOINES     TSTM      63  59  88 VRB5      29.82F FOG

$$




USA.gov is the U.S. government's official web portal to all federal, state and local government web resources and services.